Wind_Speed
28 28 27 27 26 25 25 24 24 24 23 22 22 22 23 23 24 24 24 25 25 25 25 26 27 28 29 29 29 28 27 25 23 21 20 19 19 19 19 21 23 25 27 29 30 31 31 31 29 28 27 25 24 23 24 24 24 24 23 20 18 18 18 18 19 20 20 19 19
26 26 25 24 24 23 23 22 22 21 21 21 21 22 22 23 23 24 24 24 24 24 24 25 25 26 26 26 26 25 24 22 20 18 18 18 19 20 21 23 24 26 28 29 29 28 27 27 25 24 23 23 23 24 23 23 23 21 19 18 17 17 17 18 19 18 17 15 14
24 24 24 23 23 23 22 22 22 21 21 21 21 22 22 22 23 23 24 24 23 23 23 23 23 23 23 23 23 23 21 20 18 17 18 19 19 21 22 24 25 26 27 26 25 24 24 24 24 24 23 23 24 24 24 22 21 18 17 16 17 18 19 19 18 15 13 11 9
24 24 25 25 24 24 24 24 23 23 22 22 22 22 22 22 23 23 23 23 22 21 21 22 22 21 21 21 21 21 20 20 20 19 19 19 19 20 22 24 25 25 24 24 24 24 23 23 24 25 25 24 24 23 22 21 19 17 17 18 19 20 20 18 15 13 11 9 8
25 26 27 27 27 26 25 25 24 24 23 23 23 23 23 23 23 23 23 22 21 20 20 21 20 20 20 20 20 21 21 21 20 20 19 19 19 20 22 22 22 23 23 23 23 23 24 24 25 25 25 24 23 22 20 19 18 18 19 20 20 20 18 15 13 11 10 9 10
28 29 29 29 28 28 27 26 26 25 25 25 25 24 24 24 24 23 22 20 20 19 19 19 19 19 19 20 21 23 22 21 20 19 19 19 19 20 21 21 21 22 22 22 22 23 24 25 25 25 26 26 25 24 22 20 19 20 21 20 18 16 14 12 11 11 11 12 13
30 30 30 30 29 29 29 28 28 28 28 27 26 26 25 25 24 22 21 19 19 18 18 18 18 18 19 21 22 23 22 21 21 20 19 18 19 20 21 21 20 20 20 21 21 21 22 23 23 24 25 26 25 23 22 21 22 22 21 18 16 14 13 12 12 12 13 14 15
31 31 31 31 31 31 31 30 30 30 29 28 27 26 26 25 23 21 20 18 17 17 17 16 16 17 19 21 22 21 21 22 21 19 17 17 18 19 19 19 19 19 19 19 19 19 19 20 21 21 21 20 20 21 22 23 23 22 19 16 14 13 12 12 13 13 14 15 15
33 33 32 32 32 32 33 33 32 31 30 28 27 26 25 23 22 20 18 17 16 16 15 15 15 17 19 21 21 21 20 20 19 18 18 17 18 18 18 18 18 18 18 18 18 19 19 21 22 23 24 24 24 24 23 21 19 16 14 13 12 12 12 13 13 14 15 16 17
33 34 33 33 33 33 34 34 33 31 29 27 26 25 23 22 20 18 17 16 16 15 15 14 15 17 19 20 20 20 20 19 18 18 17 16 16 16 17 17 18 18 19 19 20 21 23 24 26 28 28 27 25 21 17 15 13 12 12 12 12 13 13 14 15 16 17 17 18
34 34 34 34 34 34 34 34 32 30 27 26 24 23 21 20 18 17 16 15 15 15 14 15 16 18 19 19 20 19 19 18 18 17 16 15 15 15 16 17 18 20 21 23 24 26 28 30 31 31 28 24 19 15 13 12 12 13 13 14 14 15 15 16 16 17 18 19 20
33 34 35 35 35 35 34 32 30 28 26 24 22 21 19 19 18 17 16 15 15 15 16 16 17 18 19 20 20 19 19 19 18 17 17 16 16 17 18 19 21 23 24 26 28 30 31 32 31 27 22 17 13 12 11 12 13 14 15 15 16 16 17 17 18 18 19 20 21
33 34 35 35 35 34 33 31 28 26 24 22 21 19 19 18 18 17 17 16 16 16 16 17 18 19 20 20 20 19 19 19 19 18 18 18 19 20 21 23 24 26 27 27 27 27 26 24 21 17 14 11 11 11 13 14 15 15 16 17 17 18 18 19 19 20 21 22 23
32 33 34 34 34 33 31 29 26 24 23 21 20 19 19 19 19 18 18 18 17 17 18 18 19 19 20 20 20 20 19 20 20 19 19 20 21 22 24 25 27 27 26 25 22 19 16 13 11 10 10 11 12 13 14 15 16 17 18 19 19 20 20 21 22 22 23 25 26
32 33 33 33 32 31 29 27 25 23 22 21 20 20 20 20 20 20 20 19 19 19 20 20 21 21 21 21 21 21 21 21 21 21 21 21 22 24 25 26 26 24 22 18 15 12 10 9 10 11 13 14 15 16 16 17 18 19 20 20 21 21 22 23 23 24 25 26 27
32 32 32 32 31 30 28 26 24 23 22 22 22 21 21 21 21 21 21 21 21 21 22 22 23 22 22 21 21 22 22 22 22 22 22 23 24 24 25 24 22 19 16 14 12 11 12 12 13 14 15 16 17 17 18 19 19 20 21 22 22 23 23 24 24 25 26 26 26
32 32 32 31 30 29 27 26 25 24 23 22 22 22 22 22 22 22 22 21 21 22 23 23 23 22 22 21 21 22 22 22 22 22 22 23 23 23 21 19 17 15 13 13 13 14 14 15 15 16 17 17 18 18 19 20 20 21 22 23 24 24 25 25 25 26 26 26 26
32 32 31 31 30 28 27 26 24 23 23 22 22 22 22 22 22 22 22 21 21 22 22 22 22 22 22 21 21 21 22 22 22 22 22 22 22 21 19 17 15 14 14 15 15 16 16 16 17 17 17 18 19 20 20 21 22 22 23 24 24 25 25 26 26 26 26 26 27
32 32 31 31 29 28 27 25 24 23 23 23 23 23 23 23 22 22 21 21 22 22 22 22 22 22 22 21 21 21 21 21 22 22 23 23 22 20 18 16 15 15 16 16 17 17 17 17 17 18 19 20 21 22 22 23 23 23 24 24 25 25 26 26 26 26 27 27 28
32 32 31 31 30 28 26 25 24 23 23 23 24 24 24 24 23 22 22 23 23 23 22 22 21 21 22 21 21 21 21 22 23 23 24 24 23 21 19 18 17 16 17 17 17 17 17 18 19 20 21 22 22 23 23 24 24 24 24 25 25 26 26 26 27 27 28 28 29
32 32 31 30 29 27 25 23 23 23 24 24 24 25 25 24 24 24 24 25 25 23 22 21 20 20 20 20 21 21 22 23 24 25 25 24 23 22 21 19 18 17 17 17 17 17 18 19 21 22 22 23 23 24 24 24 25 25 25 26 26 26 27 27 28 28 29 29 30
32 32 30 29 27 25 23 23 23 23 24 25 25 25 24 24 25 26 27 27 25 23 21 19 18 18 18 20 21 22 23 24 25 24 24 24 23 23 22 21 20 19 18 18 18 19 20 22 23 23 24 24 24 25 25 25 26 26 26 27 27 28 28 29 29 29 30 30 31
31 30 29 28 26 24 23 23 23 23 24 24 23 23 23 24 26 28 28 26 23 21 19 17 17 18 20 21 23 24 24 24 23 24 24 24 23 23 22 21 20 20 19 20 20 21 22 23 24 24 25 25 25 26 26 26 26 27 27 28 28 29 29 30 30 30 31 31 31
30 29 28 26 25 24 23 23 23 23 22 21 21 21 22 25 27 28 25 22 19 18 18 18 19 21 23 24 24 24 23 22 22 22 22 23 23 22 22 21 20 20 20 21 22 23 24 24 25 25 26 26 26 26 26 26 27 27 28 29 30 30 31 31 31 31 31 32 32
30 28 27 25 24 23 23 22 21 21 20 20 20 22 25 28 28 26 21 18 17 18 19 20 22 23 24 24 23 22 21 21 21 21 21 21 21 21 21 20 20 21 22 23 24 25 25 25 26 26 27 27 27 27 27 27 28 28 29 30 31 31 31 32 32 32 32 32 32
30 28 27 25 23 22 21 20 19 19 20 21 23 25 27 27 25 22 19 17 18 19 20 20 21 21 21 20 20 19 19 19 19 19 20 20 20 21 21 21 22 23 24 25 25 25 25 26 26 26 27 27 27 27 28 29 29 30 30 31 31 31 31 32 32 32 32 32 32
30 28 26 24 21 19 18 18 18 20 21 23 23 24 23 22 20 18 18 18 19 20 20 19 18 18 18 17 17 17 17 17 18 19 19 20 20 21 22 22 23 23 24 24 25 26 26 26 26 26 26 27 28 29 29 30 30 30 30 30 31 31 31 31 32 32 33 33 33
29 27 25 21 17 16 17 19 20 21 21 21 20 20 19 17 17 16 17 18 18 19 18 18 17 17 17 16 16 16 17 18 18 19 20 20 21 21 22 22 23 24 24 25 26 26 26 26 26 26 27 28 29 30 30 30 30 30 30 30 30 30 31 32 32 33 33 34 34
28 26 24 21 18 18 20 21 22 21 21 20 20 20 19 17 17 17 17 17 18 18 18 18 18 17 17 16 17 17 17 18 19 19 20 20 21 21 22 23 24 25 25 25 25 25 25 26 27 27 28 29 29 30 30 30 30 29 30 30 30 31 31 32 33 33 34 35 36
27 25 24 22 21 21 21 21 21 21 21 22 22 22 21 20 18 18 17 17 17 17 17 17 16 15 15 15 15 16 16 17 18 19 20 21 22 23 24 24 25 25 25 25 25 26 27 28 28 29 29 29 30 29 29 29 29 29 29 30 31 31 32 33 33 34 35 36 37
26 25 23 22 20 20 20 20 21 22 23 24 24 23 21 19 16 14 13 13 13 13 13 13 13 13 14 15 16 17 18 19 20 22 23 24 24 24 25 25 25 25 25 26 27 27 28 29 29 29 29 29 29 29 29 29 29 29 30 31 31 32 33 34 35 36 37 37 38
25 24 22 21 19 19 19 20 21 22 22 22 22 20 17 14 11 10 10 11 11 12 14 15 16 17 18 19 20 21 22 23 24 24 25 25 25 25 25 25 26 26 27 27 28 28 28 29 29 29 28 28 28 28 28 28 29 30 31 32 32 33 34 35 36 37 38 38 38
23 22 21 20 20 20 20 20 20 20 20 19 17 15 13 13 13 14 15 16 18 19 20 21 21 22 22 23 24 24 25 25 25 25 26 26 26 26 26 27 27 27 27 28 28 28 28 28 28 27 27 27 28 28 28 29 30 31 32 33 34 35 36 36 37 37 38 37 37
22 21 20 20 20 20 20 19 18 17 16 15 15 15 16 17 19 20 21 22 23 24 24 24 24 24 24 25 25 25 25 25 25 25 26 26 27 27 27 28 28 27 27 27 27 27 27 27 27 27 27 27 28 28 29 30 31 32 33 34 35 36 36 37 37 37 36 36 35
21 20 20 20 20 19 18 18 17 16 16 17 18 20 21 22 24 24 25 26 26 26 26 26 25 25 25 24 24 24 24 24 25 25 26 27 27 27 27 27 27 26 26 26 26 26 26 26 26 27 27 28 29 30 31 32 33 34 35 36 36 37 37 36 36 35 34 33 31
21 21 20 20 19 18 18 17 17 18 19 21 22 23 24 25 26 26 27 27 27 27 26 26 25 25 24 24 23 23 24 24 25 26 26 27 27 26 26 26 25 25 25 25 25 26 26 26 27 27 28 29 30 31 32 33 34 35 35 36 36 36 36 35 34 33 32 30 28
21 21 21 20 19 18 18 18 19 20 21 22 23 24 24 25 26 26 26 27 26 26 26 26 25 25 24 24 24 24 24 24 25 25 25 25 25 25 24 24 24 25 25 25 26 26 27 27 28 28 29 30 31 32 33 34 34 35 35 35 35 35 34 33 32 31 30 28 26
21 20 20 19 18 18 18 18 19 20 21 22 22 23 23 24 24 24 25 25 25 25 25 25 25 25 24 24 24 24 24 24 24 24 24 24 24 24 24 24 25 25 25 26 26 27 27 28 28 29 30 30 31 32 33 34 34 34 34 34 33 33 32 31 30 29 29 27 25
19 18 17 17 16 16 17 18 18 19 20 21 21 22 22 23 23 23 23 23 23 23 24 24 24 24 24 24 24 24 23 23 23 23 23 23 23 24 24 25 25 26 26 26 27 27 28 29 29 30 30 31 31 32 32 32 33 33 32 32 31 31 30 30 30 29 28 27 25
16 15 15 15 16 16 17 18 18 19 20 21 21 22 22 22 22 22 22 22 23 23 23 23 23 24 24 24 24 23 23 23 23 23 23 23 24 25 25 26 26 26 27 27 27 28 28 29 29 30 30 31 31 31 30 30 30 30 30 29 29 29 30 30 30 30 29 28 27
15 15 15 16 16 17 18 18 19 20 21 21 22 23 23 23 23 23 23 23 23 23 23 24 24 24 24 24 23 23 23 23 23 23 24 24 25 25 26 26 27 27 27 27 28 28 29 29 30 30 30 29 29 28 27 27 27 27 27 28 28 29 30 31 31 31 30 29 28
Wind_Direction
302 303 304 305 306 308 310 311 312 313 315 317 317 318 317 316 315 315 314 313 311 310 310 311 312 313 316 318 320 321 321 319 314 306 296 283 270 258 247 238 232 226 222 221 220 219 217 215 215 215 215 216 218 221 223 225 226 229 232 236 242 248 255 263 271 279 286 292 296
306 308 309 311 313 315 316 318 319 320 321 321 320 320 318 317 316 315 314 312 311 309 310 311 313 315 317 320 321 322 321 317 311 302 291 279 266 253 242 234 228 223 220 219 218 217 215 214 214 214 216 219 222 225 227 228 231 235 240 246 253 262 273 283 290 296 300 303 304
313 314 316 318 320 322 324 324 325 325 324 323 322 321 320 318 317 315 313 311 309 308 309 311 313 315 318 320 321 320 317 312 304 295 285 275 262 249 237 229 222 218 215 215 214 215 215 216 217 220 224 225 226 228 231 234 238 243 251 261 272 284 294 302 307 312 315 317 316
319 321 323 324 326 327 328 328 328 328 327 326 325 323 321 320 318 315 313 310 308 307 308 310 312 314 316 319 319 317 314 307 299 290 281 270 255 240 228 221 217 213 212 212 214 215 218 222 223 225 227 229 231 234 238 243 248 255 266 280 292 301 308 314 318 322 325 326 321
323 325 326 328 329 330 331 331 331 331 330 328 327 325 322 320 318 314 311 307 305 305 306 308 309 312 315 317 318 315 310 304 296 286 275 261 244 229 220 214 212 212 213 215 218 221 224 228 230 231 232 234 238 243 248 253 259 271 284 296 304 310 315 319 322 326 326 324 319
327 328 329 330 332 333 334 334 333 333 331 329 327 325 322 320 316 312 308 303 302 302 304 306 308 311 315 317 318 316 310 302 292 279 265 249 234 224 217 213 213 215 217 220 224 229 232 233 236 238 242 245 249 252 256 262 273 286 297 306 312 318 323 328 330 329 326 322 320
329 331 332 333 334 335 335 335 334 333 331 329 327 324 321 318 314 309 304 300 299 301 303 305 307 311 315 318 318 315 309 300 289 275 259 242 230 224 220 218 218 220 223 227 231 235 238 239 241 244 247 251 253 258 266 277 288 297 304 312 318 324 329 331 331 327 324 320 318
332 333 334 334 335 335 334 334 333 332 329 327 324 322 318 315 311 306 301 298 299 301 303 304 306 310 316 319 317 310 301 295 284 269 252 241 232 227 224 224 226 229 232 237 244 249 252 253 254 256 259 264 271 278 285 291 295 300 307 315 323 329 330 329 325 321 317 314 311
334 334 334 334 334 334 333 332 331 330 327 324 321 318 315 312 308 303 300 299 300 302 304 304 305 310 315 317 314 307 298 287 273 260 250 245 236 231 231 233 236 241 247 254 261 267 273 275 276 278 283 288 292 295 296 298 302 308 316 324 328 328 324 318 314 310 307 304 301
335 334 334 334 334 333 332 331 330 328 325 321 318 315 312 309 305 301 299 299 301 304 305 304 305 309 312 312 308 301 290 276 262 255 250 242 238 238 241 245 251 257 262 269 273 278 283 286 289 291 293 295 298 303 309 316 323 326 326 323 318 313 309 306 303 300 298 295 292
335 335 334 334 333 332 331 330 328 325 322 318 315 311 308 305 302 299 297 299 302 305 305 303 304 307 309 307 303 294 283 269 259 252 248 245 247 251 256 262 268 272 275 278 281 284 286 289 291 294 296 299 307 318 329 331 327 320 314 310 307 303 300 298 296 293 291 289 288
335 334 334 333 333 332 331 329 326 322 319 315 311 307 304 302 298 295 295 298 301 303 303 302 304 306 307 304 299 290 280 272 265 260 257 258 262 267 272 276 279 282 285 288 289 289 290 291 292 295 300 308 319 326 324 316 309 305 302 301 299 297 295 293 292 290 289 288 287
334 334 334 333 332 331 329 326 323 319 316 312 307 303 300 298 295 293 294 296 299 301 302 302 303 305 305 302 296 288 280 275 271 268 268 271 275 279 283 286 288 290 293 294 294 294 295 296 298 303 309 315 314 308 302 299 297 296 296 295 294 293 293 292 291 290 289 288 287
333 333 333 332 331 329 327 323 319 316 312 308 303 299 297 295 292 292 292 293 295 297 300 301 303 304 303 299 293 286 280 276 273 273 274 277 282 287 291 295 296 297 297 298 298 298 300 303 307 307 304 298 293 291 290 290 292 292 293 293 293 292 292 291 290 289 288 287 286
332 333 333 331 329 327 324 320 316 312 308 304 300 297 295 292 291 290 290 291 292 295 298 301 302 302 300 296 290 285 281 277 276 276 279 283 288 294 297 300 300 300 298 297 296 294 292 290 288 286 284 283 282 283 285 287 289 291 292 292 292 291 290 289 288 287 286 285 285
332 333 332 331 328 325 322 317 313 309 305 301 298 296 293 291 290 290 289 290 292 295 299 302 302 301 299 294 290 286 283 281 280 281 285 291 296 299 300 300 298 296 293 289 284 280 277 276 276 276 277 279 280 283 285 287 288 289 291 291 291 290 288 287 286 285 285 285 286
331 332 332 330 328 324 320 315 311 306 303 299 296 294 292 291 290 289 289 290 293 297 301 302 301 300 298 294 291 289 287 285 285 288 293 298 300 300 298 294 290 285 281 277 276 275 276 276 277 277 278 280 283 285 286 287 288 289 290 289 289 288 287 286 286 286 287 287 288
330 331 331 329 327 323 318 313 308 303 300 297 294 293 291 290 290 289 289 290 294 298 300 300 299 297 295 293 292 292 290 290 291 295 299 301 300 296 291 284 279 276 275 275 276 277 278 278 278 279 281 283 285 287 288 289 289 289 289 288 287 287 287 287 288 288 289 289 289
329 330 329 328 325 321 317 311 305 301 297 295 293 290 290 290 288 287 287 289 293 297 298 297 295 293 292 292 292 293 293 293 295 297 299 299 296 291 285 279 276 275 276 278 279 280 280 280 280 281 283 284 286 288 289 291 291 290 288 287 286 287 287 288 289 290 290 290 290
328 328 327 326 324 320 315 309 304 299 296 293 290 288 287 287 285 284 285 288 292 296 296 294 291 289 288 289 290 292 293 294 295 296 296 295 292 288 283 279 277 278 280 281 281 281 280 280 281 282 283 285 288 290 292 292 291 289 288 287 287 287 288 289 290 290 290 289 289
326 326 326 324 322 319 314 308 303 298 294 291 289 287 286 285 283 283 286 290 293 293 292 290 288 286 285 286 289 291 292 293 293 293 292 291 289 286 283 280 279 279 280 281 280 280 280 281 281 283 285 287 290 292 292 291 289 288 287 287 287 288 288 289 289 289 289 289 289
325 325 325 323 322 318 314 308 302 298 294 291 289 288 287 286 285 285 288 291 292 289 285 283 281 280 281 284 286 288 289 289 289 288 287 287 286 285 282 280 279 279 279 279 280 280 280 281 282 284 287 290 292 292 291 289 287 286 286 286 287 288 289 289 289 289 289 289 289
324 324 324 323 321 317 313 308 302 298 294 291 290 290 290 289 288 288 291 293 291 285 279 276 274 274 277 280 283 285 286 285 284 283 283 283 284 284 282 280 279 279 279 279 279 280 280 281 283 287 290 293 293 292 289 287 286 285 286 287 288 288 289 289 290 290 290 290 290
323 323 323 322 320 317 312 306 301 296 292 289 289 289 288 287 288 290 292 293 289 282 276 274 273 274 277 280 282 282 282 280 279 279 280 281 283 283 283 282 280 280 279 279 278 279 281 284 289 292 294 295 293 290 288 286 285 286 287 288 289 290 290 290 291 291 291 292 292
320 321 321 321 319 316 311 304 298 292 288 286 284 283 283 285 289 292 293 290 283 278 276 276 276 277 278 279 279 279 278 277 277 278 280 281 283 283 283 282 281 279 278 277 278 282 287 292 296 297 296 294 291 289 287 286 287 288 289 290 291 292 292 293 293 293 293 294 294
318 319 319 319 318 315 310 303 295 289 284 281 280 282 286 291 295 297 293 286 280 278 278 279 278 277 277 276 275 275 275 276 278 279 281 281 282 281 281 281 280 279 279 282 286 292 297 300 300 298 295 292 290 289 288 288 289 290 291 292 293 294 295 295 295 296 296 295 295
317 317 316 316 315 311 306 297 290 284 281 281 284 289 295 300 302 299 292 286 282 280 279 278 276 274 273 272 272 273 274 276 277 278 279 279 280 280 280 280 281 284 288 293 298 301 302 301 299 296 293 291 290 290 290 291 292 293 294 295 295 296 297 298 298 297 297 296 296
316 315 313 310 305 298 291 286 283 283 285 289 295 300 304 303 298 292 286 282 278 276 274 273 272 272 272 272 273 274 274 275 276 277 277 278 279 281 284 288 292 297 300 302 303 303 301 299 297 295 293 292 291 291 292 293 295 295 296 297 298 299 299 299 299 298 298 297 296
315 314 310 303 294 286 282 281 283 286 291 296 300 301 299 292 284 278 274 272 271 270 271 271 273 274 276 278 278 277 277 277 278 279 281 284 288 293 297 302 304 304 304 302 301 300 299 298 297 295 294 293 293 294 295 296 297 298 299 299 300 300 300 299 299 298 297 297 297
315 313 307 300 291 285 283 283 284 288 291 294 295 294 290 283 275 270 268 268 269 271 273 276 279 283 286 288 289 289 289 290 291 294 297 301 304 306 307 306 305 303 301 300 300 299 299 298 296 295 295 295 296 297 298 299 300 300 301 301 300 300 299 299 298 298 298 297 298
315 312 307 300 292 287 285 285 286 288 290 291 291 289 286 282 277 275 275 278 281 284 288 293 299 305 308 309 310 310 310 310 310 311 311 311 310 309 308 305 303 301 300 300 300 300 299 297 297 296 296 297 298 299 300 301 301 301 301 300 300 299 299 298 298 298 298 298 299
315 312 308 302 296 293 291 291 291 292 292 292 291 291 290 292 296 304 311 316 319 321 323 325 325 325 324 323 322 321 320 319 318 316 314 312 310 308 305 303 302 302 302 302 301 300 298 297 297 298 299 299 300 301 301 301 301 301 300 300 299 299 299 299 299 299 299 299 300
314 311 308 305 302 299 298 296 296 296 297 297 299 302 308 315 321 326 329 331 332 332 332 331 330 329 327 326 324 322 320 319 317 314 312 309 306 305 303 303 303 303 302 301 300 299 298 298 299 300 300 301 301 301 301 301 301 300 300 299 299 299 299 299 299 300 300 300 301
313 311 309 307 305 303 301 301 301 303 306 309 314 318 322 324 325 326 328 328 330 330 331 331 330 328 327 325 323 320 317 315 312 309 307 304 303 303 303 303 303 302 301 300 299 299 299 300 300 301 301 301 301 301 301 301 301 300 300 300 300 300 300 300 301 301 301 301 302
311 310 309 308 307 305 305 306 308 312 316 319 322 323 325 325 326 328 329 329 331 331 332 331 330 328 326 324 320 317 313 310 307 304 303 302 302 302 303 302 302 301 300 299 299 300 301 301 302 302 302 302 302 302 302 302 301 301 301 301 301 301 302 302 302 302 302 302 303
310 310 310 310 310 310 311 313 316 318 321 323 326 327 329 330 331 332 332 333 333 333 332 331 329 327 324 320 317 313 309 307 305 303 302 302 302 302 302 301 301 300 300 301 301 302 302 302 303 303 303 303 303 303 303 303 303 303 303 303 303 303 303 303 302 302 302 302 303
311 312 313 315 316 318 319 321 323 326 328 331 333 335 336 336 336 336 336 336 334 332 331 329 327 324 321 318 315 312 310 308 306 305 305 304 304 303 302 302 302 302 302 303 303 304 304 304 304 305 305 305 305 305 305 305 304 304 304 304 304 304 303 303 302 301 301 301 302
315 318 320 322 324 326 329 331 334 336 339 341 342 342 342 341 340 338 336 335 332 329 327 325 324 321 319 317 316 314 312 311 309 308 307 306 305 304 304 304 304 304 305 306 306 306 306 306 306 306 306 307 307 307 307 306 306 305 305 305 304 303 302 301 300 299 299 299 300
323 326 329 332 335 337 340 343 346 348 348 349 348 347 345 343 341 338 335 332 329 326 324 322 321 319 318 317 316 316 315 313 311 310 309 308 308 307 308 308 308 308 308 308 308 308 308 307 307 307 307 308 308 308 308 307 306 305 304 303 303 302 300 299 298 297 298 298 299
332 336 339 343 346 348 350 352 353 353 352 351 350 348 346 343 340 337 334 330 326 324 322 321 320 319 319 319 319 318 317 315 313 312 311 311 311 311 311 311 311 311 310 310 310 309 309 308 308 308 308 309 309 308 308 306 305 303 302 301 300 299 299 298 298 298 299 299 299
340 344 347 350 351 352 352 352 352 351 350 349 348 346 344 342 339 336 333 329 327 325 324 323 323 323 322 322 321 320 318 317 315 314 313 313 313 313 314 313 313 312 312 311 310 310 309 309 309 309 309 309 309 308 306 304 302 300 299 299 299 299 300 300 301 301 302 302 302
Height
1504 1502 1501 1499 1497 1495 1494 1492 1491 1490 1489 1488 1487 1487 1486 1485 1484 1482 1482 1481 1479 1478 1477 1476 1475 1474 1472 1472 1471 1469 1468 1467 1466 1465 1464 1464 1463 1463 1463 1462 1462 1462 1461 1461 1461 1461 1462 1462 1462 1463 1463 1464 1464 1464 1464 1465 1465 1465 1465 1465 1466 1466 1467 1467 1467 1467 1467 1467 1466
1502 1501 1499 1497 1496 1494 1492 1491 1490 1488 1487 1487 1486 1485 1484 1483 1482 1481 1480 1479 1478 1477 1475 1474 1473 1472 1471 1470 1469 1468 1467 1466 1465 1464 1463 1463 1462 1462 1461 1461 1460 1460 1460 1460 1460 1461 1461 1461 1462 1462 1462 1462 1463 1463 1463 1463 1463 1463 1464 1464 1465 1466 1466 1466 1466 1465 1465 1465 1464
1501 1500 1498 1496 1494 1492 1491 1489 1488 1487 1486 1485 1484 1483 1482 1481 1480 1479 1478 1477 1476 1475 1474 1473 1472 1471 1470 1469 1468 1467 1467 1465 1464 1463 1462 1462 1461 1461 1460 1460 1460 1460 1460 1460 1460 1461 1461 1461 1461 1462 1462 1462 1462 1462 1462 1462 1462 1462 1463 1463 1464 1464 1464 1463 1463 1463 1463 1463 1463
1500 1499 1497 1495 1493 1491 1489 1488 1487 1486 1485 1484 1482 1481 1480 1479 1478 1477 1476 1475 1474 1473 1472 1472 1471 1470 1469 1468 1468 1467 1465 1464 1463 1462 1462 1461 1461 1460 1460 1460 1460 1460 1460 1460 1460 1460 1460 1460 1460 1460 1460 1460 1460 1460 1461 1461 1462 1462 1462 1462 1462 1462 1462 1461 1461 1461 1462 1462 1463
1499 1497 1496 1494 1492 1490 1488 1487 1486 1484 1483 1482 1481 1480 1478 1477 1476 1475 1474 1473 1472 1472 1471 1470 1469 1469 1468 1467 1467 1466 1464 1463 1462 1462 1461 1461 1460 1460 1460 1460 1460 1460 1460 1460 1460 1459 1459 1459 1459 1459 1459 1459 1459 1460 1460 1461 1461 1461 1461 1460 1460 1460 1460 1460 1460 1461 1461 1462 1462
1497 1496 1495 1493 1491 1488 1487 1486 1484 1483 1482 1481 1480 1478 1477 1476 1475 1474 1473 1472 1471 1470 1470 1469 1468 1467 1467 1466 1466 1464 1463 1463 1462 1461 1461 1460 1460 1460 1460 1460 1460 1460 1460 1460 1460 1460 1459 1459 1459 1458 1458 1459 1459 1459 1460 1460 1459 1459 1459 1459 1459 1459 1459 1459 1459 1459 1460 1460 1460
1496 1495 1493 1491 1489 1487 1485 1484 1483 1482 1481 1480 1479 1477 1476 1475 1474 1473 1472 1471 1470 1469 1468 1467 1467 1466 1466 1465 1464 1464 1463 1462 1461 1461 1460 1460 1460 1460 1460 1460 1460 1460 1460 1460 1459 1459 1459 1458 1458 1458 1458 1458 1458 1458 1458 1458 1458 1457 1457 1457 1457 1457 1457 1457 1458 1458 1458 1458 1459
1495 1493 1492 1489 1487 1485 1484 1483 1482 1481 1480 1479 1478 1477 1476 1474 1473 1472 1471 1470 1469 1468 1467 1467 1466 1465 1465 1464 1463 1463 1462 1461 1461 1460 1460 1460 1460 1460 1460 1460 1460 1460 1459 1459 1459 1459 1458 1458 1458 1458 1458 1457 1457 1457 1457 1457 1456 1456 1456 1456 1456 1456 1456 1456 1457 1457 1457 1457 1458
1493 1492 1490 1487 1486 1484 1482 1482 1481 1480 1479 1478 1477 1476 1475 1474 1473 1472 1471 1470 1469 1468 1467 1466 1465 1464 1464 1463 1462 1462 1462 1461 1460 1460 1460 1460 1460 1459 1459 1459 1459 1459 1459 1459 1459 1458 1458 1458 1457 1457 1457 1456 1456 1456 1455 1455 1454 1454 1454 1454 1454 1455 1455 1455 1456 1456 1457 1457 1457
1491 1490 1488 1486 1484 1482 1481 1480 1479 1478 1478 1477 1476 1475 1474 1473 1472 1472 1471 1470 1469 1468 1467 1466 1465 1464 1463 1462 1462 1461 1461 1460 1460 1460 1460 1459 1459 1459 1459 1459 1459 1458 1458 1458 1458 1457 1457 1457 1456 1455 1455 1454 1454 1453 1453 1453 1453 1453 1453 1453 1453 1454 1454 1455 1455 1455 1456 1456 1456
1489 1488 1486 1484 1482 1481 1480 1479 1478 1477 1476 1476 1475 1474 1473 1472 1472 1471 1470 1469 1468 1467 1467 1466 1465 1464 1463 1462 1462 1461 1460 1460 1460 1460 1459 1459 1459 1459 1458 1458 1458 1458 1457 1457 1457 1456 1456 1455 1455 1454 1453 1452 1452 1452 1452 1452 1452 1452 1452 1453 1453 1453 1453 1454 1454 1455 1455 1455 1455
1487 1486 1484 1482 1481 1479 1478 1477 1476 1476 1475 1474 1473 1473 1472 1472 1471 1470 1469 1468 1468 1467 1467 1466 1464 1463 1463 1462 1461 1461 1460 1460 1459 1459 1459 1459 1458 1458 1458 1457 1457 1457 1456 1456 1456 1455 1454 1454 1453 1452 1452 1451 1451 1452 1452 1452 1452 1452 1452 1452 1452 1452 1453 1453 1453 1453 1453 1453 1453
1486 1484 1482 1480 1479 1478 1477 1476 1475 1474 1473 1473 1472 1472 1471 1470 1470 1469 1468 1468 1467 1467 1466 1465 1464 1463 1462 1462 1461 1460 1459 1459 1459 1458 1458 1458 1457 1457 1457 1456 1456 1455 1455 1454 1454 1453 1453 1452 1452 1451 1451 1451 1452 1452 1452 1452 1452 1452 1452 1452 1452 1452 1452 1452 1452 1452 1452 1451 1451
1484 1482 1480 1479 1477 1476 1475 1474 1473 1473 1472 1472 1471 1470 1470 1469 1468 1467 1467 1467 1466 1466 1465 1464 1464 1463 1462 1461 1460 1459 1459 1458 1457 1457 1457 1457 1456 1456 1455 1455 1454 1454 1453 1453 1452 1452 1452 1451 1451 1451 1451 1451 1451 1451 1451 1451 1451 1450 1450 1450 1450 1450 1450 1450 1450 1450 1450 1449 1449
1482 1481 1479 1478 1476 1475 1474 1473 1472 1471 1471 1470 1469 1469 1468 1467 1467 1466 1466 1465 1465 1464 1464 1463 1463 1462 1462 1461 1459 1458 1457 1457 1456 1456 1456 1455 1455 1455 1454 1453 1453 1452 1452 1452 1451 1451 1451 1451 1451 1450 1450 1450 1450 1450 1450 1449 1449 1449 1449 1449 1448 1448 1448 1448 1448 1448 1448 1447 1447
1481 1479 1478 1477 1475 1474 1473 1472 1471 1470 1469 1469 1468 1467 1467 1466 1465 1465 1464 1464 1463 1463 1462 1462 1462 1461 1460 1459 1458 1457 1456 1455 1455 1455 1455 1454 1454 1453 1453 1452 1452 1451 1451 1451 1450 1450 1450 1450 1450 1449 1449 1449 1449 1448 1448 1448 1448 1447 1447 1447 1447 1447 1447 1447 1446 1446 1446 1445 1445
1480 1478 1477 1475 1474 1473 1472 1471 1470 1469 1468 1467 1467 1466 1465 1465 1464 1463 1463 1462 1462 1461 1461 1460 1460 1459 1458 1457 1457 1456 1455 1454 1454 1454 1453 1453 1453 1452 1452 1451 1451 1450 1450 1450 1449 1449 1449 1449 1448 1448 1448 1447 1447 1447 1447 1447 1446 1446 1446 1445 1445 1445 1445 1444 1444 1444 1443 1443 1443
1478 1477 1475 1474 1473 1472 1471 1470 1469 1468 1467 1466 1466 1465 1464 1463 1463 1462 1461 1461 1460 1459 1459 1458 1458 1457 1457 1456 1455 1454 1454 1453 1453 1453 1452 1452 1452 1451 1450 1450 1449 1449 1449 1449 1448 1448 1448 1447 1447 1447 1447 1446 1446 1445 1445 1445 1444 1444 1444 1444 1443 1443 1443 1442 1442 1442 1441 1441 1440
1477 1475 1474 1473 1472 1471 1470 1469 1468 1467 1466 1466 1465 1464 1463 1462 1462 1461 1460 1459 1458 1458 1457 1457 1456 1455 1455 1454 1453 1453 1452 1452 1452 1451 1451 1451 1450 1450 1449 1449 1448 1448 1448 1447 1447 1447 1447 1446 1446 1446 1445 1445 1444 1444 1443 1443 1442 1442 1442 1442 1441 1441 1441 1440 1440 1439 1439 1439 1438
1475 1473 1472 1471 1470 1469 1468 1467 1466 1466 1465 1464 1463 1463 1462 1461 1460 1459 1458 1457 1456 1456 1455 1455 1454 1453 1453 1452 1452 1452 1451 1451 1451 1450 1450 1449 1449 1448 1448 1447 1447 1447 1447 1447 1446 1446 1445 1445 1444 1444 1443 1443 1442 1442 1442 1441 1441 1440 1440 1440 1439 1439 1438 1438 1438 1437 1437 1437 1436
1473 1472 1471 1469 1468 1467 1466 1465 1465 1464 1463 1463 1462 1462 1461 1460 1459 1458 1457 1455 1454 1453 1453 1452 1452 1452 1452 1451 1451 1450 1450 1450 1449 1449 1448 1448 1447 1447 1447 1446 1446 1446 1446 1445 1445 1445 1444 1443 1443 1442 1442 1441 1441 1440 1440 1439 1439 1438 1438 1437 1437 1437 1436 1436 1436 1435 1435 1434 1434
1471 1470 1469 1467 1467 1465 1465 1464 1463 1462 1462 1461 1461 1460 1459 1459 1458 1457 1455 1454 1453 1452 1452 1451 1451 1451 1450 1450 1449 1449 1449 1448 1448 1447 1447 1446 1446 1446 1445 1445 1445 1445 1444 1444 1444 1443 1443 1442 1441 1441 1440 1439 1439 1438 1438 1437 1437 1436 1436 1435 1435 1435 1434 1434 1433 1433 1432 1432 1431
1469 1468 1467 1466 1465 1464 1463 1462 1462 1461 1460 1460 1459 1459 1458 1457 1456 1455 1453 1452 1452 1451 1451 1450 1450 1449 1448 1448 1448 1447 1447 1447 1446 1446 1445 1445 1444 1444 1444 1444 1444 1443 1443 1443 1442 1442 1441 1440 1439 1439 1438 1438 1437 1437 1436 1435 1435 1434 1434 1433 1433 1432 1432 1431 1431 1430 1430 1429 1429
1467 1466 1465 1464 1463 1462 1462 1461 1460 1460 1459 1459 1458 1457 1457 1456 1454 1452 1451 1451 1451 1450 1450 1449 1448 1447 1447 1446 1446 1445 1445 1444 1444 1444 1443 1443 1443 1443 1443 1442 1442 1442 1442 1441 1441 1440 1439 1438 1437 1437 1437 1436 1435 1435 1434 1433 1433 1432 1432 1431 1430 1430 1429 1429 1428 1428 1427 1427 1426
1465 1464 1463 1462 1462 1461 1460 1460 1459 1459 1458 1457 1456 1455 1454 1453 1452 1451 1450 1449 1449 1449 1448 1447 1446 1445 1445 1444 1444 1443 1443 1442 1442 1442 1442 1442 1442 1442 1441 1441 1441 1441 1440 1439 1439 1438 1437 1436 1436 1435 1435 1434 1433 1433 1432 1432 1431 1430 1429 1429 1428 1427 1427 1426 1426 1425 1425 1424 1423
1462 1462 1461 1460 1460 1459 1459 1459 1458 1457 1456 1455 1454 1453 1452 1451 1450 1449 1449 1448 1448 1447 1447 1445 1444 1443 1443 1442 1442 1442 1441 1441 1441 1440 1440 1440 1440 1440 1440 1439 1439 1439 1438 1437 1437 1436 1435 1435 1434 1434 1433 1432 1431 1431 1430 1429 1429 1428 1427 1426 1426 1425 1424 1423 1423 1422 1422 1421 1421
1461 1459 1459 1458 1458 1458 1458 1457 1456 1455 1454 1452 1452 1451 1450 1450 1449 1448 1448 1447 1446 1446 1445 1444 1443 1442 1441 1441 1440 1440 1440 1439 1439 1439 1438 1438 1438 1438 1438 1437 1437 1437 1436 1435 1435 1434 1434 1433 1432 1432 1431 1430 1430 1429 1428 1427 1427 1426 1425 1424 1423 1422 1422 1421 1420 1419 1419 1418 1417
1459 1458 1457 1456 1456 1456 1455 1454 1453 1452 1452 1451 1450 1449 1448 1448 1448 1447 1446 1445 1445 1444 1443 1442 1442 1441 1440 1439 1439 1438 1438 1438 1437 1437 1437 1437 1436 1436 1436 1435 1435 1435 1434 1434 1433 1432 1432 1431 1431 1430 1429 1428 1428 1427 1426 1425 1424 1423 1423 1422 1421 1420 1419 1418 1417 1417 1416 1415 1414
1457 1457 1456 1455 1454 1453 1452 1452 1451 1451 1450 1449 1448 1448 1447 1447 1446 1445 1444 1443 1442 1442 1441 1440 1440 1439 1439 1438 1437 1437 1437 1436 1436 1436 1435 1435 1435 1434 1434 1434 1433 1433 1432 1432 1431 1430 1430 1429 1429 1428 1427 1427 1426 1425 1424 1423 1422 1421 1420 1419 1419 1418 1417 1416 1415 1414 1413 1412 1411
1457 1456 1454 1453 1452 1452 1451 1450 1450 1449 1449 1448 1447 1447 1446 1445 1444 1442 1442 1441 1440 1440 1439 1439 1438 1438 1437 1437 1436 1436 1435 1435 1434 1434 1433 1433 1433 1433 1432 1432 1432 1431 1430 1430 1429 1428 1428 1427 1427 1426 1425 1424 1423 1422 1421 1421 1420 1419 1418 1417 1416 1415 1414 1413 1412 1411 1410 1409 1408
1456 1455 1454 1452 1452 1451 1450 1449 1449 1448 1447 1447 1446 1445 1444 1443 1442 1441 1440 1439 1439 1438 1438 1437 1437 1436 1436 1435 1435 1434 1434 1433 1433 1432 1432 1432 1431 1431 1431 1430 1430 1429 1428 1428 1427 1427 1426 1426 1425 1424 1423 1422 1421 1420 1419 1418 1417 1416 1415 1414 1414 1413 1412 1411 1409 1408 1407 1406 1405
1456 1455 1453 1452 1451 1450 1449 1448 1448 1447 1446 1446 1445 1444 1443 1442 1441 1440 1439 1439 1438 1437 1437 1436 1436 1435 1434 1434 1433 1433 1433 1432 1432 1431 1431 1430 1430 1429 1429 1428 1428 1427 1427 1426 1426 1425 1424 1423 1422 1422 1421 1420 1418 1417 1417 1416 1415 1414 1413 1412 1411 1410 1409 1408 1407 1406 1404 1403 1402
1456 1454 1453 1452 1451 1450 1449 1448 1447 1446 1445 1444 1444 1443 1442 1441 1440 1440 1439 1438 1438 1437 1436 1436 1435 1434 1434 1433 1433 1432 1432 1432 1431 1430 1430 1429 1428 1427 1427 1427 1426 1426 1425 1424 1424 1423 1422 1421 1420 1419 1418 1417 1416 1415 1414 1413 1412 1412 1411 1409 1408 1407 1406 1405 1404 1403 1402 1401 1400
1455 1454 1453 1452 1450 1449 1448 1447 1446 1445 1445 1444 1443 1442 1441 1441 1440 1439 1438 1437 1437 1436 1436 1435 1434 1434 1433 1432 1432 1432 1431 1430 1430 1429 1428 1427 1427 1426 1426 1425 1425 1424 1423 1422 1422 1421 1420 1419 1418 1417 1416 1415 1414 1413 1412 1411 1410 1409 1408 1407 1406 1405 1403 1402 1401 1400 1399 1398 1397
1455 1454 1452 1451 1450 1448 1447 1447 1446 1445 1444 1443 1442 1442 1441 1440 1439 1438 1437 1436 1436 1435 1434 1434 1433 1432 1432 1431 1431 1430 1429 1429 1428 1427 1427 1426 1425 1424 1424 1423 1423 1422 1422 1421 1420 1419 1418 1417 1416 1415 1414 1413 1412 1411 1410 1409 1407 1406 1405 1404 1403 1402 1401 1399 1398 1397 1396 1395 1394
1454 1453 1452 1451 1449 1448 1447 1446 1445 1444 1443 1442 1441 1440 1439 1438 1437 1437 1436 1435 1434 1434 1433 1432 1432 1431 1431 1430 1429 1429 1428 1427 1426 1426 1425 1424 1423 1423 1422 1422 1421 1420 1419 1419 1418 1417 1416 1415 1414 1413 1412 1411 1410 1408 1407 1406 1405 1403 1402 1401 1400 1399 1397 1397 1396 1394 1393 1393 1392
1454 1453 1452 1450 1449 1448 1447 1446 1445 1444 1442 1442 1440 1439 1438 1437 1437 1436 1435 1434 1433 1432 1432 1431 1430 1430 1429 1428 1428 1427 1427 1426 1425 1424 1423 1423 1422 1421 1421 1420 1419 1418 1418 1417 1416 1415 1414 1413 1412 1411 1410 1408 1407 1406 1405 1403 1402 1401 1399 1398 1397 1396 1395 1394 1393 1392 1391 1391 1390
1453 1452 1451 1450 1448 1447 1446 1445 1444 1443 1442 1441 1440 1438 1437 1437 1436 1435 1434 1433 1432 1432 1431 1430 1429 1429 1428 1427 1427 1426 1425 1424 1423 1423 1422 1421 1421 1420 1419 1418 1417 1417 1416 1415 1414 1413 1412 1411 1410 1409 1407 1406 1405 1403 1402 1401 1399 1398 1397 1395 1394 1393 1392 1391 1390 1389 1389 1388 1388
1453 1452 1451 1449 1448 1447 1445 1444 1443 1442 1441 1440 1439 1438 1437 1436 1435 1434 1433 1432 1432 1431 1430 1429 1429 1428 1427 1426 1425 1425 1424 1423 1422 1422 1421 1420 1419 1418 1417 1417 1416 1415 1414 1413 1412 1411 1410 1409 1408 1407 1405 1404 1402 1401 1400 1398 1397 1395 1394 1393 1392 1391 1390 1389 1388 1387 1387 1386 1386
1452 1452 1450 1449 1447 1446 1444 1443 1442 1441 1440 1439 1438 1437 1437 1436 1435 1434 1433 1432 1431 1430 1429 1428 1427 1427 1426 1425 1424 1423 1423 1422 1421 1420 1419 1418 1417 1417 1416 1415 1414 1413 1412 1411 1410 1409 1408 1407 1406 1404 1403 1402 1400 1399 1397 1396 1395 1393 1392 1391 1390 1388 1387 1386 1386 1385 1384 1384 1384
1452 1451 1449 1448 1446 1445 1444 1443 1442 1441 1440 1439 1438 1437 1436 1435 1434 1433 1432 1431 1430 1429 1428 1427 1427 1426 1425 1424 1423 1422 1422 1421 1420 1419 1418 1417 1416 1415 1414 1413 1412 1411 1410 1409 1408 1407 1406 1405 1403 1402 1401 1400 1398 1397 1396 1394 1393 1391 1390 1389 1388 1387 1385 1384 1383 1383 1382 1382 1381